Salisbury, MD

5:36 AM EST on January 24, 2017 (GMT -0500)
Salisbury-Ocean City Wicomico Regional

Weather History for KSBY - May, 2013

Change the Weather History Date:

Thursday, May 9, 2013

  Actual Average Record
Temperature  
Mean Temperature 67 °F 60 °F  
Max Temperature 75 °F 72 °F 92 °F (1936)
Min Temperature 59 °F 49 °F 29 °F (1946)
Degree Days  
Heating Degree Days 0 6  
Month to date heating degree days 59 59  
Since 1 July heating degree days 3807 4339  
Cooling Degree Days 2 1  
Month to date cooling degree days 2 9  
Year to date cooling degree days 48 26  
Growing Degree Days 16 (Base 50)    
Moisture  
Dew Point 56 °F    
Average Humidity 68    
Maximum Humidity 87    
Minimum Humidity 49    
Precipitation  
Precipitation 0.02 in 0.10 in 1.81 in (1978)
Month to date precipitation 0.97 0.94  
Year to date precipitation 16.30 15.87  
Snow  
Snow 0.00 in 0.00 in 0.00 in (2002)
Month to date snowfall 0.0 0.0  
Since 1 July snowfall 2.8 9.3  
Snow Depth 0.00 in    
Sea Level Pressure  
Sea Level Pressure 29.96 in    
Wind  
Wind Speed 6 mph (WSW)    
Max Wind Speed 15 mph    
Max Gust Speed 18 mph    
Visibility 9 miles    
Events Rain , Thunderstorm    
T = Trace of Precipitation, MM = Missing Value Source: NWS Daily Summary

Daily Weather History Graph

Daily Weather History Graph

Search for Another Location

Airport or City:

Trip Planner

Search our weather history database for the weather conditions in past years. The results will help you decide how hot, cold, wet, or windy it might be!

Date:

Astronomy

May. 09, 2013 Rise Set
Actual Time 5:56 AM EDT 8:01 PM EDT
Civil Twilight 5:27 AM EDT 8:30 PM EDT
Nautical Twilight 4:51 AM EDT 9:06 PM EDT
Astronomical Twilight 4:12 AM EDT 9:45 PM EDT
Moon 5:38 AM EDT (5/9) 7:54 PM EDT (5/9)
Length of Visible Light 15h 03m
Length of Day
14h 04m
Waning Crescent, 0% of the Moon is Illuminated
May 9
Waning Crescent
May 9
New
May 18
First Quarter
May 25
Full
May 31
Last Quarter

Hourly Weather History & Observations

Time (EDT) Temp. Dew Point Humidity Pressure Visibility Wind Dir Wind Speed Gust Speed Precip Events Conditions
12:41 AM 60.8 °F 57.2 °F 88% 29.93 in 6.0 mi East 6.9 mph - 0.02 in Rain , Thunderstorm Light Rain
12:54 AM 60.1 °F 57.0 °F 90% 29.96 in 5.0 mi Calm Calm - 0.04 in Rain , Thunderstorm Light Thunderstorms and Rain
1:05 AM 60.8 °F 57.2 °F 88% 29.95 in 5.0 mi West 3.5 mph - 0.01 in Rain , Thunderstorm Light Thunderstorms and Rain
1:36 AM 60.8 °F 57.2 °F 88% 29.94 in 9.0 mi Calm Calm - 0.01 in   Overcast
1:49 AM 60.8 °F 57.2 °F 88% 29.93 in 9.0 mi Calm Calm - 0.01 in   Overcast
1:54 AM 60.1 °F 57.0 °F 90% 29.94 in 9.0 mi South 3.5 mph - 0.01 in   Overcast
2:54 AM 60.1 °F 55.9 °F 86% 29.93 in 10.0 mi West 3.5 mph - N/A   Overcast
3:38 AM 60.8 °F 55.4 °F 82% 29.92 in 10.0 mi SSW 3.5 mph - N/A   Overcast
3:50 AM 60.8 °F 55.4 °F 82% 29.92 in 10.0 mi West 3.5 mph - N/A   Overcast
3:54 AM 59.0 °F 55.9 °F 90% 29.93 in 10.0 mi Calm Calm - N/A   Overcast
4:54 AM 59.0 °F 55.0 °F 87% 29.92 in 2.5 mi Calm Calm - N/A   Mostly Cloudy
5:01 AM 59.0 °F 55.4 °F 88% 29.91 in 4.0 mi Calm Calm - N/A   Mostly Cloudy
5:32 AM 59.0 °F 55.4 °F 88% 29.92 in 6.0 mi West 3.5 mph - N/A   Mostly Cloudy
5:54 AM 59.0 °F 55.9 °F 90% 29.94 in 6.0 mi West 3.5 mph - 0.01 in   Mostly Cloudy
6:02 AM 59.0 °F 55.4 °F 88% 29.93 in 5.0 mi West 4.6 mph - N/A   Mostly Cloudy
6:43 AM 59.0 °F 55.4 °F 88% 29.95 in 7.0 mi West 5.8 mph - N/A   Scattered Clouds
6:54 AM 60.1 °F 55.9 °F 86% 29.96 in 8.0 mi WNW 5.8 mph - N/A   Scattered Clouds
7:09 AM 60.8 °F 55.4 °F 82% 29.95 in 9.0 mi WNW 4.6 mph - N/A   Mostly Cloudy
7:23 AM 60.8 °F 55.4 °F 82% 29.95 in 9.0 mi West 3.5 mph - N/A   Partly Cloudy
7:54 AM 61.0 °F 55.9 °F 83% 29.97 in 10.0 mi WSW 5.8 mph - N/A   Scattered Clouds
8:35 AM 62.6 °F 55.4 °F 77% 29.98 in 10.0 mi WSW 8.1 mph - N/A   Mostly Cloudy
8:54 AM 63.0 °F 55.0 °F 75% 29.98 in 10.0 mi SW 6.9 mph - N/A   Mostly Cloudy
9:03 AM 64.4 °F 55.4 °F 73% 29.98 in 10.0 mi West 6.9 mph - N/A   Scattered Clouds
9:24 AM 62.6 °F 55.4 °F 77% 29.98 in 10.0 mi West 6.9 mph - N/A   Mostly Cloudy
10:25 AM 64.4 °F 53.6 °F 68% 29.99 in 10.0 mi WSW 9.2 mph - N/A   Partly Cloudy
10:49 AM 64.4 °F 55.4 °F 73% 30.00 in 10.0 mi SW 8.1 mph - N/A   Mostly Cloudy
10:54 AM 64.0 °F 55.0 °F 73% 30.00 in 10.0 mi SW 8.1 mph - N/A   Mostly Cloudy
11:10 AM 64.4 °F 53.6 °F 68% 30.00 in 10.0 mi West 8.1 mph - N/A   Scattered Clouds
11:54 AM 66.0 °F 55.0 °F 68% 30.00 in 10.0 mi West 9.2 mph - N/A   Clear
1:54 PM 73.0 °F 54.0 °F 51% 29.98 in 10.0 mi Variable 6.9 mph - N/A   Clear
2:54 PM 73.0 °F 54.0 °F 51% 29.97 in 10.0 mi SW 8.1 mph - N/A   Partly Cloudy
3:54 PM 73.9 °F 55.9 °F 53% 29.97 in 10.0 mi WSW 11.5 mph 17.3 mph N/A   Partly Cloudy
4:54 PM 73.9 °F 55.9 °F 53% 29.97 in 10.0 mi WSW 10.4 mph - N/A   Clear
5:54 PM 73.9 °F 55.0 °F 52% 29.96 in 10.0 mi WSW 11.5 mph - N/A   Clear
6:54 PM 72.0 °F 55.9 °F 57% 29.97 in 10.0 mi SW 8.1 mph - N/A   Clear
7:54 PM 69.1 °F 55.9 °F 63% 29.99 in 10.0 mi SW 4.6 mph - N/A   Clear
8:54 PM 64.0 °F 57.0 °F 78% 30.00 in 10.0 mi South 4.6 mph - N/A   Clear
9:54 PM 63.0 °F 57.9 °F 84% 30.01 in 10.0 mi SSW 4.6 mph - N/A   Scattered Clouds
10:54 PM 63.0 °F 57.9 °F 84% 30.01 in 10.0 mi SSW 6.9 mph - N/A   Partly Cloudy
11:54 PM 62.1 °F 57.0 °F 84% 30.01 in 10.0 mi SSW 5.8 mph - N/A   Clear